Location: Moscow
(38.3171°N, 79.0889°W)
Time: 06:34:23
(UTC+00:00)

Daily predictions for brighter satellites

Satellite Brightness Start Highest point End
(mag) Time Altitude Azimuth Time Altitude Azimuth Time Altitude Azimuth
ARIANE 6 FM1 Upper Stage 2.8 22:30:31 10° SW 22:34:32 73° NW 22:38:31 10° NNE
SJ-12 4.2 22:31:28 10° SE 22:35:03 40° ENE 22:38:37 10° N
Meteor 1-21 Rocket 4.3 22:30:39 10° N 22:36:13 88° W 22:41:45 10° S
Cosmos 1606 2.0 22:33:47 10° S 22:36:24 48° E 22:39:03 10° NNE
IGS 5A 3.6 22:34:01 10° S 22:37:58 76° WSW 22:41:58 10° NNW
Cosmos 1818 3.8 22:32:34 10° NNW 22:38:02 78° WSW 22:43:25 10° SSE
SAR-Lupe-4 3.5 22:35:41 10° SSE 22:39:13 64° ENE 22:42:46 10° N
Cosmos 1378 Rocket 3.5 22:35:33 10° N 22:39:52 75° E 22:44:12 10° SSE
ARIANE 5 R/B 2.4 22:38:59 10° SSE 22:43:54 65° ENE 22:48:50 10° N
Cosmos 1844 Rocket 3.2 22:41:51 10° SW 22:47:20 62° WNW 22:52:51 10° NNE
Tiangong -1.5 22:46:23 10° W 22:49:27 46° N 22:52:14 12° ENE
Cosmos 2100 Rocket 4.1 22:45:01 10° S 22:51:15 83° W 22:57:28 10° N
SWARM C 4.5 22:51:30 10° N 22:54:48 61° E 22:58:04 10° S
SWARM A 4.4 22:51:39 10° N 22:54:54 49° E 22:58:06 10° SSE
SKYMED 2 4.0 22:52:19 10° NNE 22:56:24 39° E 23:00:28 10° SSE
SL-4 R/B 4.0 22:56:34 10° N 22:57:42 11° NNE 22:58:51 10° NNE
Cosmos 1816 Rocket 4.5 22:51:50 10° N 22:58:10 68° E 23:04:23 10° SSE
COSMO-SKYMED 1 3.4 22:54:40 10° NE 22:58:13 27° E 23:01:45 10° SSE
SMAP 3.4 22:55:38 10° S 23:00:15 70° W 23:04:54 10° NNW
Cosmos 1908 Rocket 3.5 22:56:09 10° S 23:00:30 70° E 23:04:54 10° NNE
Cosmos 1833 Rocket 4.2 22:57:07 10° NNE 23:00:35 16° NE 23:02:37 14° ENE
Cosmos 1867 4.0 22:56:39 10° SW 23:02:01 64° WNW 23:07:27 10° NNE
Cosmos 1300 Rocket 3.9 23:01:36 10° SSE 23:05:44 42° E 23:09:53 10° NNE
Iridium 4 Rocket 4.1 23:02:07 10° S 23:07:41 66° W 23:12:53 10° N
Cosmos 1975 Rocket 4.3 23:07:13 10° NNE 23:10:24 20° ENE 23:13:00 12° ESE
Cosmos 1603 3.7 23:05:29 10° NNW 23:11:12 88° WSW 23:16:49 10° SSE
Cosmos 2221 Rocket 3.5 23:07:11 10° N 23:11:42 76° E 23:16:08 10° SSE
Delta 2 Rocket 3.7 23:08:55 10° WSW 23:12:46 47° S 23:15:13 19° ESE
Landsat 7 4.1 23:10:29 10° S 23:15:07 70° W 23:19:46 10° NNW
Cosmos 1441 Rocket 3.4 23:12:21 10° N 23:15:26 33° ENE 23:18:29 10° SE
BREEZE-M DEB (TANK) 2.2 23:14:55 10° SW 23:17:07 79° SE 23:19:53 19° ENE
Cosmos 1302 Rocket 4.4 23:15:57 10° NNW 23:21:07 68° WSW 23:26:18 10° S
Cosmos 1725 Rocket 4.2 23:16:38 10° S 23:22:51 77° W 23:29:09 10° N
Spot 4 Rocket 4.1 23:18:56 10° SSE 23:23:51 51° ENE 23:28:47 10° N
Cosmos 2084 Rocket 4.2 23:24:06 10° S 23:27:43 30° ESE 23:28:27 28° E
NOSS 3-4 (A) 4.0 23:23:19 10° NNW 23:30:15 60° NE 23:38:18 10° SE
NOSS 3-4 (C) 4.0 23:23:24 10° NNW 23:30:19 59° NE 23:38:21 10° SE
Cosmos 2233 Rocket 4.0 23:28:05 10° S 23:34:20 88° E 23:40:40 10° N
SJ-7 4.1 23:31:54 10° SSE 23:35:32 60° ENE 23:39:10 10° N
PSLV R/B 3.4 23:34:03 10° SSE 23:38:04 58° ENE 23:42:04 10° N
SL-12 R/B(2) 4.5 23:32:20 10° S 23:39:21 43° ESE 23:44:54 20° NE
Cosmos 1992 Rocket 3.9 23:34:29 10° NNW 23:39:42 87° WSW 23:44:53 10° SSE
Helios 1A Rocket 2.9 23:39:13 10° N 23:42:33 60° WNW 23:45:54 10° SSW
NOAA 6 4.2 23:38:26 10° SE 23:43:23 49° ENE 23:48:20 10° N
Cosmos 1269 Rocket 3.9 23:40:15 10° S 23:45:27 71° ESE 23:49:42 16° NNE
Cosmos 2278 Rocket 3.7 23:41:16 10° SSE 23:43:16 18° SE 23:43:16 18° SE
NOAA 15 4.5 23:40:33 10° SSE 23:45:48 77° ENE 23:51:06 10° N
Resurs 1-3 3.4 23:43:52 10° SSE 23:48:07 71° ENE 23:52:25 10° N
Tsikada Rocket 4.1 23:45:10 10° N 23:51:37 85° W 23:58:00 10° S
ATLAS CENTAUR R/B 2.5 23:50:29 10° WSW 23:53:38 33° NW 23:55:18 21° N
CZ-4C R/B 3.8 23:50:32 10° W 23:53:54 22° NW 23:57:53 10° N
BREEZE-M DEB (TANK) 4.1 23:52:57 10° W 23:55:10 28° NNW 23:56:15 24° NNE
